CYHA

Quaqtaq Airport

ICAO Code CYHA
IATA Code YQC
Name Quaqtaq Airport
Location Quaqtaq, Quebec, CA
Elevation 106 Feet / 32.3 Meters
Latitude 61.04638889
Longitude -69.61777778
METAR CYHA 251700Z 18004KT 160V250 15SM SCT012 M00/M03 A3004 RMK SF3 SLP178
Extra information Display Charts
Runway Length Width Surface Elevation
36 3520 ft 100 ft GRAVEL 104 ft
18 3520 ft 100 ft GRAVEL 95 ft